Regional Weather Roundup
Issued by NWS Midland/Odessa, TX

Skip options and go directly to product.
Home | Oldest Version | Previous Version | Current Version | All | Text Only | Save Text | Print | Product List | Glossary On

Skip product version selection by date and time.   
039
ASUS44 KMAF 061301
RWRMAF
MIDLAND AREA WEATHER ROUNDUP
NATIONAL WEATHER SERVICE MIDLAND TX
800 AM CDT FRI MAY 06 2016

...IN SOUTHWEST TEXAS AND SOUTHEAST NEW MEXICO...

CITY           SKY/WX    TMP DP  RH WIND       PRES   REMARKS
ALPINE         SUNNY     65  33  30 S12       30.13R
ANDREWS        FAIR      56  38  50 S7        30.05R
ARTESIA        SUNNY     55  28  35 E7        30.01S
BIG SPRING     SUNNY     61  40  44 S14       30.07R
CARLSBAD       SUNNY     64  33  31 S9        30.00R
DRYDEN           N/A     64  43  46 NE6       30.03R
FORT STOCKTON  SUNNY     67  37  33 S16       30.00S
GUAD PASS      NOT AVBL
HOBBS          MOSUNNY   54  36  50 CALM      30.07R
MARFA          CLEAR     54  33  45 E3        30.12R
MIDLAND AIRPK  SUNNY     62  40  45 SE10      30.06R
MIDLAND INTL   SUNNY     59  40  49 SE10      30.05R
ODESSA         SUNNY     63  38  39 S15       30.06R
PECOS          SUNNY     58  33  39 E6        29.98R
PRESIDIO       FAIR      70  35  27 MISG      29.99R
SEMINOLE       CLOUDY    56  39  53 SE6       30.07R
SNYDER           N/A     63  47  56 SE12      30.08R
WINK           SUNNY     63  38  39 SE16      29.99S
$$
...OTHER STATIONS IN TEXAS...

CITY           SKY/WX    TMP DP  RH WIND       PRES   REMARKS
ABILENE        SUNNY     62  54  74 SE9       30.08R
AMARILLO       MOSUNNY   55  42  61 S12       30.09R
AUSTIN         MOSUNNY   61  57  87 CALM      30.09R
BROWNSVILLE    SUNNY     67  66  97 SW3       30.04R
CORPUS CHRISTI MOSUNNY   71  63  75 CALM      30.04R
DALLAS FTW     PTSUNNY   63  57  81 CALM      30.08R
DEL RIO        SUNNY     62  51  67 E7        30.04R
EL PASO        PTCLDY    67  25  20 CALM      29.95R
HOUSTON INT    MOSUNNY   62  57  83 N3        30.07R
LUBBOCK        CLOUDY    61  41  47 S7        30.08R
SAN ANGELO     MOSUNNY   57  48  72 SE3       30.07R
SAN ANTONIO    MOSUNNY   66  57  72 CALM      30.08R
WACO           SUNNY     57  53  86 W3        30.09R
WICHITA FALLS  NOT AVBL
$$
...OTHER LOCATIONS IN NEW MEXICO...

CITY           SKY/WX    TMP DP  RH WIND       PRES   REMARKS
ALAMAGORDO     CLEAR     73  28  19 S18G26    29.95S
ALBUQUERQUE    PTCLDY    63  27  25 SW7       30.00R
CANNON AFB     NOT AVBL
CLOVIS         CLOUDY    54  36  50 S3        30.10R
HOLLOMAN AFB   CLEAR     66  24  20 S13       29.94R
ROSWELL        SUNNY     55  30  38 CALM      30.02R
RUIDOSO          N/A     48  21  34 SE9       30.14R
SANTA FE       CLEAR     60  26  27 SE21G26   30.06R
TRUTH OR CONSE CLEAR     58  33  39 SW8       29.95R
TUCUMCARI      CLOUDY    58  35  42 E3        30.05R
$$

USA.gov is the U.S. government's official web portal to all federal, state and local government web resources and services.